EW0610 Weather Reports


Display with metric or nautical units.
time (UTC)temp
F
wind
direction
speed
MPH
gust
MPH
rain 1hr
in
rain 24hr
in
rain mn
in
humidity
%
barometer
mb
20260903023439 91 112 7.0 12.0 0.00 0.00 0.00 49 1012.0
20260903022926 91 114 4.0 12.0 0.00 0.00 0.00 48 1012.0
20260903022436 91 126 5.0 13.0 0.00 0.00 0.00 48 1012.0
20260903021942 92 124 7.0 13.0 0.00 0.00 0.00 48 1011.9
20260903021447 92 99 9.0 15.0 0.00 0.00 0.00 48 1011.8
20260903020951 92 106 10.0 17.0 0.00 0.00 0.00 48 1011.7
20260903020432 92 107 13.0 17.0 0.00 0.00 0.00 48 1011.6
20260903015941 92 106 10.0 18.0 0.00 0.00 0.00 49 1011.5
20260903015447 92 96 13.0 18.0 0.00 0.00 0.00 49 1011.5
20260903014932 92 119 10.0 14.0 0.00 0.00 0.00 49 1011.4
20260903014504 92 106 11.0 14.0 0.00 0.00 0.00 49 1011.5
20260903013932 92 95 8.0 12.0 0.00 0.00 0.00 49 1011.5
20260903013439 92 107 7.0 12.0 0.00 0.00 0.00 49 1011.4
20260903012944 92 120 6.0 13.0 0.00 0.00 0.00 49 1011.4
20260903012429 92 124 9.0 13.0 0.00 0.00 0.00 48 1011.3
20260903011927 93 105 7.0 14.0 0.00 0.00 0.00 48 1011.3
20260903011436 93 100 9.0 14.0 0.00 0.00 0.00 48 1011.2
20260903010927 93 111 7.0 13.0 0.00 0.00 0.00 48 1011.2
20260903010439 93 91 10.0 13.0 0.00 0.00 0.00 47 1011.1
20260903005930 93 110 6.0 13.0 0.00 0.00 0.00 47 1011.1
20260903005434 93 98 8.0 15.0 0.00 0.00 0.00 46 1011.1
20260903004938 94 98 8.0 15.0 0.00 0.00 0.00 46 1011.1
20260903004425 94 94 9.0 19.0 0.00 0.00 0.00 45 1011.1
20260903003948 94 92 10.0 21.0 0.00 0.00 0.00 45 1011.1
20260903003433 94 91 13.0 21.0 0.00 0.00 0.00 45 1011.1
20260903002942 95 104 13.0 20.0 0.00 0.00 0.00 45 1010.9
20260903002449 96 119 14.0 19.0 0.00 0.00 0.00 44 1010.9
20260903001934 97 63 11.0 16.0 0.00 0.00 0.00 40 1010.9
20260903001436 97 85 10.0 14.0 0.00 0.00 0.00 39 1010.7
20260903000935 97 95 9.0 14.0 0.00 0.00 0.00 39 1010.8
20260903000441 97 118 7.0 13.0 0.00 0.00 0.00 39 1011.0
20260902235947 97 101 8.0 14.0 0.00 0.00 0.00 38 1010.9
20260902235433 98 83 9.0 16.0 0.00 0.00 0.00 38 1010.8
20260902234943 98 66 8.0 16.0 0.00 0.00 0.00 37 1010.8
20260902234447 98 78 8.0 12.0 0.00 0.00 0.00 38 1010.8
20260902233932 98 103 8.0 12.0 0.00 0.00 0.00 38 1010.9
20260902233440 98 85 5.0 13.0 0.00 0.00 0.00 38 1010.9
20260902232942 98 97 3.0 15.0 0.00 0.00 0.00 39 1010.9
20260902232449 98 87 5.0 12.0 0.00 0.00 0.00 39 1010.8
20260902231939 98 92 4.0 13.0 0.00 0.00 0.00 38 1010.8
20260902231429 98 104 9.0 13.0 0.00 0.00 0.00 38 1010.8
20260902230935 99 88 5.0 12.0 0.00 0.00 0.00 38 1010.8
20260902230444 99 74 4.0 14.0 0.00 0.00 0.00 39 1010.8
20260902225931 99 77 8.0 14.0 0.00 0.00 0.00 38 1010.8
20260902225458 99 51 5.0 11.0 0.00 0.00 0.00 38 1010.9
20260902224940 99 84 5.0 11.0 0.00 0.00 0.00 38 1010.9
20260902224444 99 123 5.0 12.0 0.00 0.00 0.00 38 1010.8
20260902223932 100 96 6.0 12.0 0.00 0.00 0.00 37 1011.0
20260902223435 100 89 7.0 12.0 0.00 0.00 0.00 38 1011.0
20260902222942 99 113 3.0 12.0 0.00 0.00 0.00 38 1011.0
20260902222427 99 35 7.0 12.0 0.00 0.00 0.00 37 1011.1
20260902221933 99 99 7.0 11.0 0.00 0.00 0.00 38 1011.1
20260902221441 99 79 6.0 12.0 0.00 0.00 0.00 39 1011.2
20260902220926 98 96 3.0 15.0 0.00 0.00 0.00 39 1011.2
20260902220435 99 99 10.0 15.0 0.00 0.00 0.00 39 1011.2
20260902220000 99 64 1.0 15.0 0.00 0.00 0.00 37 1011.3
20260902215429 100 79 9.0 15.0 0.00 0.00 0.00 37 1011.5
20260902214936 99 68 5.0 11.0 0.00 0.00 0.00 38 1011.4
20260902214431 99 68 8.0 15.0 0.00 0.00 0.00 38 1011.5
20260902213937 99 64 7.0 15.0 0.00 0.00 0.00 37 1011.5
20260902213444 99 56 6.0 14.0 0.00 0.00 0.00 37 1011.5
20260902212953 99 74 4.0 11.0 0.00 0.00 0.00 37 1011.6
20260902212507 99 102 5.0 13.0 0.00 0.00 0.00 36 1011.6
20260902211932 99 343 7.0 13.0 0.00 0.00 0.00 37 1011.7
20260902211435 99 85 8.0 17.0 0.00 0.00 0.00 37 1011.8
20260902210943 99 87 9.0 17.0 0.00 0.00 0.00 37 1011.8
20260902210453 99 68 7.0 13.0 0.00 0.00 0.00 37 1011.8
20260902205939 98 102 6.0 13.0 0.00 0.00 0.00 38 1011.9
20260902205432 98 119 10.0 13.0 0.00 0.00 0.00 37 1011.9
20260902204937 99 66 6.0 13.0 0.00 0.00 0.00 37 1012.0
20260902204425 99 67 8.0 13.0 0.00 0.00 0.00 38 1012.0
20260902203932 99 56 6.0 13.0 0.00 0.00 0.00 38 1012.0
20260902203507 99 124 5.0 14.0 0.00 0.00 0.00 39 1012.1
20260902202929 99 93 10.0 14.0 0.00 0.00 0.00 39 1012.2
20260902202504 99 102 5.0 10.0 0.00 0.00 0.00 39 1012.2
20260902201929 99 77 3.0 10.0 0.00 0.00 0.00 37 1012.4
20260902201435 99 48 4.0 12.0 0.00 0.00 0.00 36 1012.4
20260902200942 99 49 6.0 12.0 0.00 0.00 0.00 41 1012.6
20260902200441 98 106 4.0 16.0 0.00 0.00 0.00 39 1012.6
20260902195924 98 66 10.0 16.0 0.00 0.00 0.00 38 1012.7
20260902195457 97 78 5.0 14.0 0.00 0.00 0.00 41 1012.8
20260902194942 98 102 8.0 14.0 0.00 0.00 0.00 39 1012.8
20260902194446 98 92 5.0 16.0 0.00 0.00 0.00 40 1012.9
20260902193929 98 66 9.0 16.0 0.00 0.00 0.00 41 1012.9
20260902193449 98 95 12.0 15.0 0.00 0.00 0.00 41 1013.0
20260902192932 97 97 8.0 12.0 0.00 0.00 0.00 42 1013.1
20260902192439 98 104 6.0 12.0 0.00 0.00 0.00 42 1013.3
20260902191945 98 112 7.0 13.0 0.00 0.00 0.00 41 1013.4
20260902191428 97 78 7.0 14.0 0.00 0.00 0.00 43 1013.4
20260902190933 97 104 9.0 14.0 0.00 0.00 0.00 42 1013.5
20260902190441 97 104 7.0 12.0 0.00 0.00 0.00 43 1013.5
20260902185942 97 95 9.0 12.0 0.00 0.00 0.00 43 1013.6
20260902185424 97 105 5.0 10.0 0.00 0.00 0.00 44 1013.7
20260902184939 97 86 5.0 13.0 0.00 0.00 0.00 45 1013.8
20260902184444 96 97 8.0 13.0 0.00 0.00 0.00 44 1013.7
20260902183932 95 99 5.0 7.0 0.00 0.00 0.00 45 1013.9
20260902183444 95 112 3.0 7.0 0.00 0.00 0.00 45 1014.0
20260902182926 95 95 1.0 9.0 0.00 0.00 0.00 44 1014.1
20260902182431 96 73 5.0 9.0 0.00 0.00 0.00 45 1014.2
20260902181939 96 81 5.0 11.0 0.00 0.00 0.00 46 1014.3
20260902181440 96 106 5.0 11.0 0.00 0.00 0.00 44 1014.4
20260902180925 95 72 5.0 8.0 0.00 0.00 0.00 45 1014.6
20260902180433 95 102 3.0 8.0 0.00 0.00 0.00 44 1014.6
20260902180007 95 100 4.0 10.0 0.00 0.00 0.00 45 1014.9
20260902175424 95 91 5.0 12.0 0.00 0.00 0.00 44 1014.9
20260902174936 95 71 7.0 12.0 0.00 0.00 0.00 43 1015.1
20260902174446 94 75 6.0 14.0 0.00 0.00 0.00 45 1014.9
20260902173928 94 112 6.0 14.0 0.00 0.00 0.00 46 1015.1
20260902173432 94 99 6.0 11.0 0.00 0.00 0.00 47 1015.2
20260902172942 93 104 2.0 12.0 0.00 0.00 0.00 47 1015.2
20260902172429 94 110 2.0 10.0 0.00 0.00 0.00 47 1015.2
20260902171927 94 66 5.0 11.0 0.00 0.00 0.00 49 1015.3
20260902171437 94 68 3.0 11.0 0.00 0.00 0.00 48 1015.3
20260902170928 93 114 4.0 10.0 0.00 0.00 0.00 48 1015.5
20260902170502 93 111 4.0 10.0 0.00 0.00 0.00 48 1015.5
20260902165925 94 126 5.0 9.0 0.00 0.00 0.00 48 1015.6
20260902165432 93 100 4.0 7.0 0.00 0.00 0.00 48 1015.6
20260902164939 93 111 1.0 10.0 0.00 0.00 0.00 49 1015.6
20260902164440 93 102 6.0 10.0 0.00 0.00 0.00 48 1015.8
20260902163927 93 109 6.0 10.0 0.00 0.00 0.00 48 1015.7
20260902163437 92 97 3.0 6.0 0.00 0.00 0.00 49 1015.7
20260902162942 92 103 5.0 7.0 0.00 0.00 0.00 49 1015.8
20260902162431 91 99 3.0 11.0 0.00 0.00 0.00 50 1015.8
20260902161941 91 106 3.0 11.0 0.00 0.00 0.00 50 1015.9
20260902161429 91 97 5.0 7.0 0.00 0.00 0.00 51 1015.9
20260902160931 91 104 5.0 7.0 0.00 0.00 0.00 51 1015.9
20260902160457 91 122 2.0 10.0 0.00 0.00 0.00 53 1016.0
20260902155928 91 120 5.0 10.0 0.00 0.00 0.00 52 1016.0
20260902155439 90 105 3.0 6.0 0.00 0.00 0.00 53 1016.0
20260902154928 90 118 2.0 5.0 0.00 0.00 0.00 53 1015.9
20260902154432 90 114 3.0 5.0 0.00 0.00 0.00 53 1015.9
20260902153958 90 116 0.0 7.0 0.00 0.00 0.00 55 1015.9
20260902153443 89 111 5.0 7.0 0.00 0.00 0.00 56 1015.9
20260902152945 88 117 2.0 6.0 0.00 0.00 0.00 56 1015.9
20260902152451 89 120 3.0 5.0 0.00 0.00 0.00 57 1015.8
20260902151937 88 128 2.0 5.0 0.00 0.00 0.00 57 1015.9
20260902151443 88 129 3.0 5.0 0.00 0.00 0.00 58 1015.9
20260902150949 88 118 2.0 4.0 0.00 0.00 0.00 58 1015.8
20260902150434 87 118 2.0 6.0 0.00 0.00 0.00 59 1015.8
20260902145941 87 119 3.0 6.0 0.00 0.00 0.00 58 1015.8
20260902145442 87 111 4.0 6.0 0.00 0.00 0.00 60 1015.8
20260902144946 86 112 2.0 6.0 0.00 0.00 0.00 60 1015.8
20260902144450 86 108 4.0 7.0 0.00 0.00 0.00 60 1015.8
20260902143930 86 115 5.0 6.0 0.00 0.00 0.00 61 1015.8
20260902143433 85 110 4.0 6.0 0.00 0.00 0.00 61 1015.9
20260902143001 85 114 3.0 8.0 0.00 0.00 0.00 62 1015.9
20260902142438 85 113 4.0 8.0 0.00 0.00 0.00 63 1016.0
20260902141928 84 117 3.0 9.0 0.00 0.00 0.00 64 1015.9
20260902141432 84 106 5.0 9.0 0.00 0.00 0.00 64 1015.9
20260902141003 84 131 4.0 8.0 0.00 0.00 0.00 64 1015.9
20260902140428 84 128 4.0 7.0 0.00 0.00 0.00 65 1015.8
20260902135933 83 120 5.0 7.0 0.00 0.00 0.00 65 1015.9
20260902135440 83 118 4.0 7.0 0.00 0.00 0.00 66 1015.9
20260902134939 83 134 4.0 7.0 0.00 0.00 0.00 66 1015.9
20260902134447 82 131 4.0 7.0 0.00 0.00 0.00 66 1015.8
20260902133931 82 131 3.0 6.0 0.00 0.00 0.00 66 1015.8
20260902133440 82 127 3.0 6.0 0.00 0.00 0.00 67 1015.7
20260902132929 82 118 2.0 6.0 0.00 0.00 0.00 67 1015.8
20260902132435 82 118 2.0 6.0 0.00 0.00 0.00 67 1015.8
20260902131938 82 116 4.0 6.0 0.00 0.00 0.00 67 1015.7
20260902131424 81 116 3.0 6.0 0.00 0.00 0.00 68 1015.7
20260902130929 81 122 2.0 5.0 0.00 0.00 0.00 69 1015.7
20260902130434 81 124 3.0 5.0 0.00 0.00 0.00 69 1015.7
20260902125942 81 126 2.0 5.0 0.00 0.00 0.00 69 1015.5
20260902125431 81 126 3.0 5.0 0.00 0.00 0.00 69 1015.6
20260902125005 81 122 2.0 4.0 0.00 0.00 0.00 69 1015.6
20260902124431 80 122 2.0 4.0 0.00 0.00 0.00 70 1015.5
20260902123937 80 122 2.0 5.0 0.00 0.00 0.00 70 1015.5
20260902123430 80 122 1.0 5.0 0.00 0.00 0.00 69 1015.3
20260902122930 80 120 2.0 6.0 0.00 0.00 0.00 69 1015.2
20260902122438 80 121 3.0 6.0 0.00 0.00 0.00 69 1015.1
20260902121946 80 122 2.0 4.0 0.00 0.00 0.00 69 1015.0
20260902121428 80 122 2.0 6.0 0.00 0.00 0.00 69 1014.9
20260902121006 80 122 3.0 6.0 0.00 0.00 0.00 69 1014.9
20260902120429 80 121 3.0 4.0 0.00 0.00 0.00 69 1015.0
20260902115940 80 122 2.0 4.0 0.00 0.00 0.00 69 1014.9
20260902115444 80 121 2.0 5.0 0.00 0.00 0.00 68 1015.0
20260902114932 80 122 2.0 5.0 0.00 0.00 0.00 68 1015.0
20260902114508 80 120 3.0 6.0 0.00 0.00 0.00 68 1014.9
20260902113946 80 121 4.0 7.0 0.00 0.00 0.00 68 1015.0
20260902113432 80 118 3.0 7.0 0.00 0.00 0.00 68 1015.0
20260902112940 80 118 2.0 7.0 0.00 0.00 0.00 68 1015.0
20260902112429 81 118 3.0 7.0 0.00 0.00 0.00 68 1015.0
20260902111951 81 117 4.0 7.0 0.00 0.00 0.00 68 1015.1
20260902111433 81 121 3.0 9.0 0.00 0.00 0.00 68 1015.1
20260902110940 81 117 5.0 9.0 0.00 0.00 0.00 68 1015.0
20260902110451 81 126 3.0 5.0 0.00 0.00 0.00 68 1015.0
20260902110000 81 129 3.0 5.0 0.00 0.00 0.00 68 1015.0
20260902105427 81 131 2.0 5.0 0.00 0.00 0.00 67 1015.0
20260902104935 81 130 3.0 5.0 0.00 0.00 0.00 67 1015.0
20260902104442 81 133 3.0 5.0 0.00 0.00 0.00 67 1015.0
20260902103929 81 162 2.0 5.0 0.00 0.00 0.00 67 1014.9
20260902103435 81 181 3.0 4.0 0.00 0.00 0.00 67 1014.9
20260902102942 81 153 2.0 4.0 0.00 0.00 0.00 67 1014.9
20260902102454 81 186 2.0 4.0 0.00 0.00 0.00 67 1014.9
20260902101944 81 191 2.0 3.0 0.00 0.00 0.00 67 1014.9
20260902101432 81 191 1.0 2.0 0.00 0.00 0.00 67 1014.9
20260902100932 81 191 1.0 2.0 0.00 0.00 0.00 67 1014.9
20260902100444 81 191 0.0 1.0 0.00 0.00 0.00 66 1014.9
20260902095930 82 191 0.0 1.0 0.00 0.00 0.00 66 1014.8
20260902095435 82 191 0.0 0.0 0.00 0.00 0.00 67 1014.8
20260902094940 82 191 0.0 2.0 0.00 0.00 0.00 66 1014.7
20260902094427 82 191 0.0 3.0 0.00 0.00 0.00 65 1014.9
20260902093940 82 191 1.0 4.0 0.00 0.00 0.00 65 1014.9
20260902093440 82 191 1.0 5.0 0.00 0.00 0.00 64 1014.8
20260902092942 82 191 2.0 5.0 0.00 0.00 0.00 65 1014.9
20260902092427 82 195 1.0 4.0 0.00 0.00 0.00 65 1014.9
20260902091935 83 196 1.0 4.0 0.00 0.00 0.00 64 1015.0
20260902091440 83 196 2.0 6.0 0.00 0.00 0.00 64 1014.9
20260902090926 83 201 3.0 7.0 0.00 0.00 0.00 64 1015.0
20260902090456 83 201 2.0 7.0 0.00 0.00 0.00 64 1014.9
20260902085957 83 190 4.0 6.0 0.00 0.00 0.00 64 1015.0
20260902085438 83 185 3.0 8.0 0.00 0.00 0.00 65 1014.9
20260902084945 83 194 3.0 8.0 0.00 0.00 0.00 64 1015.0
20260902084452 83 153 2.0 6.0 0.00 0.00 0.00 65 1015.0
20260902084000 83 148 2.0 6.0 0.00 0.00 0.00 64 1015.0
20260902083440 83 141 4.0 8.0 0.00 0.00 0.00 65 1014.9
20260902082949 83 167 4.0 8.0 0.00 0.00 0.00 65 1014.9
20260902082438 83 169 2.0 7.0 0.00 0.00 0.00 64 1014.9
20260902081943 83 171 4.0 7.0 0.00 0.00 0.00 64 1014.9
20260902081429 83 172 4.0 9.0 0.00 0.00 0.00 63 1014.9
20260902080957 84 204 3.0 9.0 0.00 0.00 0.00 63 1014.9
20260902080437 84 179 5.0 13.0 0.00 0.00 0.00 62 1014.9
20260902075945 85 158 3.0 13.0 0.00 0.00 0.00 61 1014.9
20260902075449 85 191 5.0 10.0 0.00 0.00 0.00 60 1015.0
20260902074955 85 175 4.0 10.0 0.00 0.00 0.00 59 1015.0
20260902074442 85 193 3.0 7.0 0.00 0.00 0.00 59 1015.0
20260902073928 85 148 3.0 7.0 0.00 0.00 0.00 60 1015.0
20260902073431 85 177 4.0 6.0 0.00 0.00 0.00 59 1015.0
20260902072935 86 158 2.0 6.0 0.00 0.00 0.00 59 1015.0
20260902072427 86 148 4.0 8.0 0.00 0.00 0.00 59 1015.2
20260902071935 86 148 3.0 8.0 0.00 0.00 0.00 59 1015.2
20260902071439 86 166 4.0 7.0 0.00 0.00 0.00 59 1015.1
20260902070947 86 165 4.0 10.0 0.00 0.00 0.00 59 1015.1
20260902070438 86 177 4.0 10.0 0.00 0.00 0.00 59 1015.2
20260902065925 86 153 8.0 10.0 0.00 0.00 0.00 59 1015.1
20260902065449 86 191 3.0 9.0 0.00 0.00 0.00 59 1015.1
20260902064935 86 207 3.0 9.0 0.00 0.00 0.00 59 1015.0
20260902064440 86 153 2.0 7.0 0.00 0.00 0.00 59 1015.1
20260902063930 86 153 4.0 8.0 0.00 0.00 0.00 58 1015.0
20260902063502 86 135 6.0 8.0 0.00 0.00 0.00 58 1015.0
20260902062933 87 134 3.0 12.0 0.00 0.00 0.00 58 1014.9
20260902062436 87 173 4.0 11.0 0.00 0.00 0.00 57 1014.9
20260902062008 87 142 4.0 11.0 0.00 0.00 0.00 57 1014.8
20260902061456 87 134 7.0 12.0 0.00 0.00 0.00 57 1014.8
20260902061007 87 175 7.0 12.0 0.00 0.00 0.00 56 1014.8
20260902060434 87 148 7.0 12.0 0.00 0.00 0.00 56 1014.7
20260902055940 87 118 7.0 12.0 0.00 0.00 0.00 55 1014.6
20260902055504 88 162 5.0 9.0 0.00 0.00 0.00 55 1014.6
20260902054953 88 133 5.0 9.0 0.00 0.00 0.00 55 1014.5
20260902054440 88 125 6.0 10.0 0.00 0.00 0.00 54 1014.5
20260902053930 88 179 5.0 13.0 0.00 0.00 0.00 54 1014.4
20260902053436 88 126 7.0 13.0 0.00 0.00 0.00 53 1014.4
20260902052946 89 118 7.0 11.0 0.00 0.00 0.00 53 1014.4
20260902052429 89 166 7.0 10.0 0.00 0.00 0.00 52 1014.4
20260902051936 89 158 5.0 9.0 0.00 0.00 0.00 52 1014.2
20260902051436 89 124 4.0 10.0 0.00 0.00 0.00 52 1014.3
20260902050944 89 136 7.0 14.0 0.00 0.00 0.00 52 1014.3
20260902050432 89 122 8.0 14.0 0.00 0.00 0.00 51 1014.3
20260902045936 89 117 4.0 12.0 0.00 0.00 0.00 51 1014.3
20260902045426 90 129 4.0 13.0 0.00 0.00 0.00 51 1014.3
20260902044937 89 122 6.0 13.0 0.00 0.00 0.00 51 1014.3
20260902044448 90 117 0.0 6.0 0.00 0.00 0.00 51 1014.2
20260902043932 90 115 2.0 5.0 0.00 0.00 0.00 50 1014.2
20260902043443 90 116 1.0 4.0 0.00 0.00 0.00 50 1014.2
20260902042953 90 115 2.0 5.0 0.00 0.00 0.00 50 1014.1
20260902042435 90 116 3.0 6.0 0.00 0.00 0.00 50 1014.1
20260902041938 90 115 4.0 7.0 0.00 0.00 0.00 49 1014.0
20260902041429 90 120 6.0 7.0 0.00 0.00 0.00 49 1014.0
20260902040933 90 121 4.0 6.0 0.00 0.00 0.00 49 1013.9
20260902040455 91 127 3.0 6.0 0.00 0.00 0.00 49 1014.0
20260902035945 91 127 3.0 6.0 0.00 0.00 0.00 49 1014.1
20260902035430 91 134 4.0 6.0 0.00 0.00 0.00 48 1014.0
20260902034937 91 128 4.0 7.0 0.00 0.00 0.00 48 1014.0
20260902034443 91 120 5.0 7.0 0.00 0.00 0.00 48 1014.0
20260902033932 91 129 4.0 7.0 0.00 0.00 0.00 48 1014.1
20260902033435 91 127 3.0 7.0 0.00 0.00 0.00 48 1014.0
20260902032941 91 132 3.0 6.0 0.00 0.00 0.00 48 1013.9
20260902032427 91 122 3.0 6.0 0.00 0.00 0.00 48 1013.9
20260902032003 91 128 3.0 5.0 0.00 0.00 0.00 48 1014.0
20260902031429 91 129 3.0 5.0 0.00 0.00 0.00 47 1013.9
20260902030933 92 124 2.0 5.0 0.00 0.00 0.00 47 1013.8
20260902030442 92 127 3.0 5.0 0.00 0.00 0.00 47 1013.7
20260902025935 92 125 3.0 6.0 0.00 0.00 0.00 47 1013.7
20260902025509 92 124 4.0 7.0 0.00 0.00 0.00 47 1013.5
20260902024932 92 124 5.0 7.0 0.00 0.00 0.00 47 1013.5
20260902024435 92 120 3.0 5.0 0.00 0.00 0.00 47 1013.5
20260902024006 92 118 3.0 7.0 0.00 0.00 0.00 47 1013.4